Flag for Canada Weather past 2 weeks in Kawartha Lakes, Ontario, Canada

Now
17 °F

Cold.


Feels Like: 17 °F
Forecast: 18 / 26 °F
Wind: 2 mph from North

Location: Lagoon City

Current Time: Dec 20, 2014 at 12:56:57 AM

Latest Report: Dec 20, 2014 at 12:00 AM


Visibility: N/A

Pressure: 30.28 "Hg

Humidity: 93%

Dew point: 15 °F

Location of Kawartha LakesLocation

Historic Weather in Kawartha Lakes — Graph

°F

Kawartha Lakes temperature yesterday

Maximum temperature yesterday: 22 °F (at 12:00 AM)
Minimum temperature yesterday: 17 °F (at 7:00 AM)
Average temperature yesterday: 20 °F

Past Weeks' High & Low Weather Summary

 TemperatureHumidityPressure
High37 °F (Dec 6, 2:00 PM)100% (Dec 11, 8:00 PM)30.79 "Hg (Dec 11, 8:00 PM)
Low15 °F (Dec 7, 7:00 AM)47% (Dec 7, 4:00 PM)29.72 "Hg (Dec 17, 1:00 AM)
Average28 °F85%30.11 "Hg
* Reported Dec 4 11:00 PM — Dec 19 11:00 PM, Kawartha Lakes, Weather by CustomWeather, © 2014

Note: Actual official high and low records may vary slightly from our data, if they occured in-between our weather recording intervals... More about our weather records

Advertising

Kawartha Lakes weather history for previous 24 hours

 ConditionsComfort  
Time TempWeatherWind HumidityBarometerVisibility
11:00 PM
Dec 19
20 °FCold.6 mph91%30.29 "HgN/A
10:00 PM20 °FCold.5 mph87%30.27 "HgN/A
9:00 PM20 °FCold.5 mph85%30.26 "HgN/A
8:00 PM20 °FCold.3 mph81%30.26 "HgN/A
7:00 PM20 °FCold.7 mph80%30.25 "HgN/A
6:00 PM21 °FCold.7 mph79%30.24 "HgN/A
5:00 PM22 °FCold.8 mph78%30.22 "HgN/A
4:00 PM22 °FCold.9 mph79%30.21 "HgN/A
3:00 PM22 °FCold.14 mph79%30.20 "HgN/A
2:00 PM21 °FCold.12 mph77%30.18 "HgN/A
1:00 PM21 °FCold.9 mph78%30.18 "HgN/A
12:00 PM20 °FCold.9 mph78%30.18 "HgN/A
11:00 AM19 °FCold.9 mph82%30.20 "HgN/A
10:00 AM17 °FCold.8 mph90%30.21 "HgN/A
9:00 AM18 °FCold.7 mph86%30.20 "HgN/A
8:00 AM17 °FCold.12 mph87%30.17 "HgN/A
7:00 AM17 °FCold.12 mph85%30.15 "HgN/A
6:00 AM18 °FCold.10 mph87%30.14 "HgN/A
5:00 AM17 °FCold.9 mph84%30.14 "HgN/A
4:00 AM18 °FCold.8 mph82%30.13 "HgN/A
3:00 AM20 °FCold.12 mph80%30.13 "HgN/A
2:00 AM20 °FCold.8 mph87%30.11 "HgN/A
1:00 AM20 °FCold.8 mph86%30.11 "HgN/A
12:00 AM22 °FCold.13 mph80%30.10 "HgN/A
Weather by CustomWeather, © 2014

See weather overviewHow to use our weather pages